Погода в Гришином

Россия / Республика Крым     45°38′34″N   33°49′53″E
темп.,
°C
ветер,
м/с
пор.,
м/с
влажн.,
%
обл.,
%
осадки,
мм/ч
давл.,
гПа
погр.,
м
17 апреля, сб
сб1700:00+4юз36925 0.0 1020104
03:00+4ююз36931 0.0 1021108
06:00+4ююз36920 0.0 102194
09:00+10юз45613 0.0 1022541
12:00+14юз334266 0.0 10211687
15:00+14ссз5344100 0.0 10211285
18:00+12с44525 0.0 1021715
21:00+8св35725 0.0 102174
18 апреля, вс
вс1800:00+6в3867100 0.0 1019153
03:00+5всв3668100 0.0 1019121
06:00+6всв3769100 0.0 1018187
09:00+10в575957 0.0 1018623
12:00+14в556027 0.0 10171066
15:00+13в4467100 0.0 1016743
18:00+12всв4576100 0.0 1016493
21:00+10в4688100 0.1 1017267
19 апреля, пн
пн1900:00+9в2491100 0.0 1016189
03:00+9всв1293100 0.1 1015116
06:00+9св2394100 0.0 1014176
09:00+11всв4490100 0.0 1014372
12:00+13в3478100 0.0 1013803
15:00+14всв4474100 0.1 1011748
18:00+13всв4580100 0.0 1010484
21:00+10всв4894100 1.1 1008310
20 апреля, вт
вт2000:00+11в4898100 5.3 1005327
03:00+12ююз3896100 9.1 1002419
06:00+11ююз81591100 1.1 999847
09:00+11ююз9148771 1.1 9991031
12:00+13ююз14197344 0.1 9971403
15:00+9зюз141883100 0.3 9991325
18:00+8з131888100 1.6 10041361
21:00+9зюз9158281 1.8 1009753
21 апреля, ср
ср2100:00+9зюз71478100 0.0 1012552
03:00+7юз513886 0.0 1013274
06:00+7ююз49955 0.0 1015164
09:00+13ююз677756 0.4 1016664
12:00+14юз786656 2.3 10171162
15:00+16зюз7105111 3.8 10171987
18:00+14юз69665 0.1 10181107
21:00+9ююз511880 0.1 1020333